TimePST,TemperatureF,Dew PointF,Humidity,Sea Level PressureIn,VisibilityMPH,Wind Direction,Wind SpeedMPH,Gust SpeedMPH,PrecipitationIn,Events,Conditions,WindDirDegrees,DateUTC
12:13 AM,46.4,44.6,93,30.33,1.8,Calm,Calm,-,0.00,Rain,Light Rain,0,2013-02-01 08:13:00
12:53 AM,45.0,43.0,93,30.34,0.2,North,4.6,-,0.02,Fog-Rain,Light Rain,360,2013-02-01 08:53:00
1:05 AM,44.6,42.8,93,30.34,1.0,North,4.6,-,0.01,Rain,Light Rain,360,2013-02-01 09:05:00
1:13 AM,44.6,42.8,93,30.34,2.0,North,5.8,-,0.01,Rain,Light Rain,350,2013-02-01 09:13:00
1:19 AM,44.6,42.8,93,30.34,0.8,North,5.8,-,0.01,,Mist,360,2013-02-01 09:19:00
1:33 AM,44.6,42.8,93,30.34,2.0,North,8.1,-,0.01,,Overcast,350,2013-02-01 09:33:00
1:40 AM,44.6,42.8,93,30.35,8.0,North,5.8,-,0.01,,Overcast,350,2013-02-01 09:40:00
1:53 AM,44.1,42.1,93,30.36,7.0,NNW,5.8,-,0.01,,Overcast,340,2013-02-01 09:53:00
2:53 AM,44.1,42.1,93,30.37,10.0,North,4.6,-,0.00,,Overcast,10,2013-02-01 10:53:00
3:30 AM,44.6,41.0,87,30.36,10.0,North,4.6,-,N/A,,Overcast,360,2013-02-01 11:30:00
3:53 AM,44.1,41.0,89,30.38,10.0,North,4.6,-,N/A,,Overcast,360,2013-02-01 11:53:00
4:09 AM,44.6,41.0,87,30.37,10.0,North,3.5,-,N/A,,Overcast,10,2013-02-01 12:09:00
4:53 AM,44.1,41.0,89,30.38,10.0,NNE,3.5,-,N/A,,Overcast,20,2013-02-01 12:53:00
5:15 AM,44.6,42.8,93,30.37,10.0,NNE,3.5,-,N/A,,Overcast,20,2013-02-01 13:15:00
5:48 AM,44.6,41.0,87,30.37,10.0,NNE,3.5,-,N/A,,Overcast,20,2013-02-01 13:48:00
5:53 AM,44.1,41.0,89,30.38,10.0,NNE,4.6,-,N/A,,Overcast,20,2013-02-01 13:53:00
6:06 AM,44.6,42.8,93,30.38,10.0,NNE,3.5,-,N/A,,Overcast,20,2013-02-01 14:06:00
6:13 AM,44.6,42.8,93,30.38,10.0,NNE,4.6,-,0.00,Rain,Light Rain,20,2013-02-01 14:13:00
6:53 AM,44.6,42.8,93,30.38,3.0,ENE,5.8,-,N/A,Rain,Light Rain,60,2013-02-01 14:53:00
7:15 AM,44.6,42.8,93,30.38,5.0,NE,4.6,-,0.00,,Overcast,50,2013-02-01 15:15:00
7:34 AM,44.6,42.8,93,30.37,7.0,Calm,Calm,-,0.00,,Overcast,0,2013-02-01 15:34:00
7:53 AM,44.1,42.1,93,30.39,1.0,NE,3.5,-,0.00,,Overcast,40,2013-02-01 15:53:00
8:53 AM,44.1,42.1,93,30.39,1.0,East,4.6,-,N/A,,Overcast,100,2013-02-01 16:53:00
9:00 AM,44.6,41.0,87,30.38,3.0,East,3.5,-,N/A,Fog,Fog,90,2013-02-01 17:00:00
9:07 AM,42.8,41.0,93,30.38,0.5,Calm,Calm,-,N/A,Fog,Fog,0,2013-02-01 17:07:00
9:53 AM,44.1,42.1,93,30.40,0.5,Calm,Calm,-,N/A,Fog,Fog,0,2013-02-01 17:53:00
10:00 AM,44.6,42.8,93,30.39,0.2,Calm,Calm,-,N/A,Fog,Fog,0,2013-02-01 18:00:00
10:30 AM,44.6,42.8,93,30.40,0.5,Calm,Calm,-,N/A,Fog,Fog,0,2013-02-01 18:30:00
10:46 AM,44.6,42.8,93,30.41,0.2,Calm,Calm,-,N/A,Fog,Fog,0,2013-02-01 18:46:00
10:53 AM,44.1,43.0,96,30.42,0.5,Calm,Calm,-,N/A,Fog,Fog,0,2013-02-01 18:53:00
11:00 AM,44.6,42.8,93,30.41,0.2,Calm,Calm,-,N/A,Fog,Fog,0,2013-02-01 19:00:00
11:53 AM,44.1,42.1,93,30.41,1.0,Calm,Calm,-,N/A,,Overcast,0,2013-02-01 19:53:00
12:13 PM,44.6,42.8,93,30.40,2.0,NNE,4.6,-,N/A,,Overcast,30,2013-02-01 20:13:00
12:43 PM,44.6,42.8,93,30.40,3.0,North,4.6,-,N/A,,Overcast,10,2013-02-01 20:43:00
12:53 PM,45.0,43.0,93,30.41,10.0,North,3.5,-,N/A,,Overcast,350,2013-02-01 20:53:00
1:12 PM,46.4,42.8,87,30.39,10.0,NNE,3.5,-,N/A,,Overcast,20,2013-02-01 21:12:00
1:53 PM,48.2,42.8,82,30.38,10.0,ENE,3.5,-,N/A,,Mostly Cloudy,60,2013-02-01 21:53:00
2:30 PM,48.2,42.8,82,30.38,10.0,Calm,Calm,-,N/A,,Partly Cloudy,0,2013-02-01 22:30:00
2:53 PM,48.9,41.0,74,30.39,10.0,NNW,4.6,-,N/A,,Clear,340,2013-02-01 22:53:00
3:53 PM,48.0,39.9,74,30.39,10.0,NNW,4.6,-,N/A,,Partly Cloudy,340,2013-02-01 23:53:00
4:53 PM,46.0,39.9,79,30.39,10.0,North,3.5,-,N/A,,Clear,350,2013-02-02 00:53:00
5:53 PM,44.1,39.9,85,30.39,10.0,North,4.6,-,N/A,,Clear,360,2013-02-02 01:53:00
6:53 PM,43.0,39.9,89,30.39,10.0,North,8.1,-,N/A,,Clear,350,2013-02-02 02:53:00
7:53 PM,42.1,39.9,92,30.40,8.0,North,5.8,-,N/A,,Clear,350,2013-02-02 03:53:00
8:24 PM,42.8,39.2,87,30.39,5.0,North,6.9,-,N/A,,Scattered Clouds,350,2013-02-02 04:24:00
8:33 PM,42.8,39.2,87,30.39,4.0,North,6.9,-,N/A,,Mostly Cloudy,360,2013-02-02 04:33:00
8:47 PM,42.8,41.0,93,30.39,1.8,North,5.8,-,N/A,,Overcast,360,2013-02-02 04:47:00
8:53 PM,43.0,41.0,93,30.40,1.2,North,6.9,-,N/A,,Overcast,360,2013-02-02 04:53:00
9:28 PM,42.8,41.0,93,30.39,3.0,North,4.6,-,N/A,,Overcast,10,2013-02-02 05:28:00
9:53 PM,43.0,41.0,93,30.40,4.0,North,5.8,-,N/A,,Overcast,360,2013-02-02 05:53:00
10:15 PM,42.8,41.0,93,30.39,2.5,North,3.5,-,N/A,,Overcast,10,2013-02-02 06:15:00
10:26 PM,42.8,41.0,93,30.39,1.5,North,4.6,-,N/A,,Overcast,360,2013-02-02 06:26:00
10:48 PM,42.8,41.0,93,30.38,0.5,NNE,6.9,-,N/A,Fog,Fog,20,2013-02-02 06:48:00
10:53 PM,43.0,41.0,93,30.39,0.5,North,5.8,-,N/A,Fog,Fog,10,2013-02-02 06:53:00
11:11 PM,42.8,41.0,93,30.38,0.2,North,6.9,-,N/A,Fog,Fog,360,2013-02-02 07:11:00
11:53 PM,42.1,39.9,92,30.39,0.2,North,4.6,-,N/A,Fog,Fog,360,2013-02-02 07:53:00